Regional Weather Roundup
Issued by NWS Binghamton, NY

Home | Current Version | Previous Version | Text Only | Print | Product List | Glossary On
Versions: 1 2 3 4 5 6 7 8 9 10 11 12 13 14 15 16 17 18 19 20 21 22 23 24 25 26 27 28 29 30 31 32 33 34 35 36 37 38 39 40 41 42 43 44 45 46 47 48 49 50
000
ASUS41 KBGM 222210
RWRBGM
RWRBGM
BINGHAMTON REGIONAL WEATHER ROUNDUP
NATIONAL WEATHER SERVICE BINGHAMTON NY
600 PM EDT TUE JUL 22 2014

Note: "fair" indicates few or no clouds below 12,000 feet with no
significant weather and/or obstructions to visibility.

* = Station(s) that does not report precipitation, such as rain,
snow, etc, also no thunder or fog.

!NYZ009-015>018-022>025-036-037-044>046-055>057-062-222300
...CENTRAL NEW YORK...

CITY           SKY/WX    TMP DP  RH WIND       PRES   REMARKS
BINGHAMTON     SUNNY     82  66  58 SW9       30.08S
CORTLAND       FAIR      82  70  65 S7        30.06S HX  86
DANSVILLE      MOSUNNY   88  67  49 VRB3      30.00F HX  91
ELMIRA         MOSUNNY   86  69  56 S10       30.02F HX  90
ITHACA         MOSUNNY   84  69  60 S8        30.05F HX  87
HAMILTON       MOCLDY    84  68  58 S5        30.05S HX  87
MONTICELLO     PTSUNNY   81  70  69 SW8       30.10F
NORWICH        MOSUNNY   82  66  57 S8        30.05S HX  85
ONEONTA        SUNNY     81  64  57 SW7       30.10S
PENN YAN       SUNNY     85  69  58 S7        30.02F HX  89
ROME           SUNNY     86  65  49 SW6       30.01F HX  88
SIDNEY         MOSUNNY   82  72  69 W5        30.06S HX  87
SYRACUSE       MOSUNNY   90  66  45 SW7       29.99F HX  92
$$

!PAZ038>040-043-044-047-048-072-222300
...NORTHEAST PENNSYLVANIA...

CITY           SKY/WX    TMP DP  RH WIND       PRES   REMARKS
HAZLETON       MOSUNNY   79  68  69 S8        30.15S
SCRANTON       PTSUNNY   84  66  54 SW7       30.07F HX  86
TOWANDA*       SUNNY     84  66  54 SW8       30.05S HX  86
$$
&&
KEY
WCI = WIND CHILL INDEX
VSB = VISIBILITY
HX  = HEAT INDEX
$$


USA.gov is the U.S. government's official web portal to all federal, state and local government web resources and services.